Regional Weather Roundup
Issued by NWS Boston, MA

Home | Current Version | Previous Version | Text Only | Print | Product List | Glossary On
Versions: 1 2 3 4 5 6 7 8 9 10 11 12 13 14 15 16 17 18 19 20 21 22 23 24 25 26 27 28 29 30 31 32 33 34 35 36 37 38 39 40 41 42 43 44 45 46 47 48 49 50
000
ASUS41 KBOX 012210
RWRBOX

REGIONAL WEATHER ROUNDUP
NATIONAL WEATHER SERVICE TAUNTON MA
600 PM EDT TUE SEP 01 2015

NOTE:  "FAIR" INDICATES FEW OR NO CLOUDS BELOW 12,000 FEET WITH NO
SIGNIFICANT WEATHER AND/OR OBSTRUCTIONS TO VISIBILITY.  THE FOLLOWING
OBSERVATION LOCATIONS DO NOT REPORT PRESENT WEATHER...PROVINCETOWN...
SMITHFIELD...BLOCK ISLAND...KEENE...AND OXFORD.

MAZALL-012300-
EASTERN MASSACHUSETTS

CITY           SKY/WX    TMP DP  RH WIND       PRES   REMARKS
BOSTON         SUNNY     72  63  73 E15       30.02F
BEVERLY        SUNNY     71  62  73 SE8       30.02F
LAWRENCE       SUNNY     77  61  57 SE7       30.03S
BEDFORD        SUNNY     76  60  57 SE9       30.00S
BLUE HILL        N/A     76  62  62 SE8       30.03S
NORWOOD        SUNNY     79  63  57 SE10      30.01S
MARSHFIELD     SUNNY     73  64  73 SE6       30.05S
PLYMOUTH       SUNNY     75  62  64 SE7       30.04S
TAUNTON        SUNNY     80  63  55 SE9       30.01R
NEW BEDFORD    SUNNY     76  63  64 SE10      30.02S
$$

MAZALL-012300-
CAPE COD AND THE ISLANDS

CITY           SKY/WX    TMP DP  RH WIND       PRES   REMARKS
FALMOUTH       SUNNY     73  63  68 SE8       30.04S
HYANNIS        SUNNY     73  61  65 SE6       30.03S
CHATHAM        SUNNY     71  61  70 E6        30.05S
PROVINCETOWN     N/A     73  57  56 E5        30.04S
NANTUCKET      SUNNY     74  59  59 E6        30.03F
MARTHAS VNYRD  SUNNY     74  63  68 SE6       30.04S
$$

MAZALL-012300-
CENTRAL AND WESTERN MASSACHUSETTS

CITY           SKY/WX    TMP DP  RH WIND       PRES   REMARKS
WORCESTER      SUNNY     80  58  46 W7        30.05F
FITCHBURG      SUNNY     86  58  38 W7        30.01F
ORANGE         SUNNY     82  55  39 SW3       30.02F
SPRINGFIELD    SUNNY     84  51  31 NE3       30.00F
WESTFIELD      SUNNY     84  53  34 E3        30.01S
NORTH ADAMS    SUNNY     81  61  50 CALM      30.03S
PITTSFIELD     SUNNY     79  60  52 SW3       30.05S
$$

RIZALL-012300-
RHODE ISLAND

CITY           SKY/WX    TMP DP  RH WIND       PRES   REMARKS
PROVIDENCE     MOSUNNY   79  64  60 S10       30.02S
NEWPORT        SUNNY     75  63  66 S9        30.03F
BLOCK ISLAND   SUNNY     75  66  73 S9        30.04S
SMITHFIELD     SUNNY     79  63  57 S5        30.02S
WESTERLY       SUNNY     76  64  66 S7        30.04S
$$

CTZALL-012300-
CONNECTICUT

CITY           SKY/WX    TMP DP  RH WIND       PRES   REMARKS
BRADLEY INTL   SUNNY     85  58  39 N3        30.00F
HARTFORD       SUNNY     86  55  34 NE3       30.00S
BRIDGEPORT     SUNNY     84  60  44 S6        30.01S
DANBURY        SUNNY     85  58  39 CALM      30.03S
GROTON         SUNNY     75  67  76 S6        30.03S
NEW HAVEN      SUNNY     82  61  48 S6        30.02S
CHESTER        NOT AVBL
MERIDEN        SUNNY     85  61  44 S7        30.00S
WILLIMANTIC    SUNNY     83  62  49 S12       30.01S
OXFORD         MOSUNNY   82  63  51 S7        30.06
$$

MEZ002-015-021-024-NHZ003-005-008-011-012-014-VTZ005-008-012300-
NORTHERN NEW ENGLAND

CITY           SKY/WX    TMP DP  RH WIND       PRES   REMARKS
PORTLAND ME    SUNNY     70  57  63 S8        30.03R
BANGOR ME      MOSUNNY   75  55  49 SW3       30.00S
CONCORD NH     SUNNY     82  58  43 S5        30.01S
MANCHESTER NH  SUNNY     84  56  38 CALM      29.99S
NASHUA NH      SUNNY     85  57  38 NW7       30.00F
PORTSMOUTH NH  SUNNY     71  60  69 SE8       30.01S
JAFFREY NH     SUNNY     80  56  43 W5        30.06S
KEENE NH       SUNNY     82  55  39 SW5       30.03S
BURLINGTON VT  SUNNY     84  55  36 S6        29.99S
MT. WASHINGTON MOSUNNY   63  16  16 NW3         N/A
$$

NYZ052-076-012300-
EASTERN NEW YORK

CITY           SKY/WX    TMP DP  RH WIND       PRES   REMARKS
ALBANY         MOSUNNY   85  62  46 W7        30.00F
NEW YORK CITY  MOSUNNY   84  63  49 S8        30.00S
$$

ANZALL-012300-
MARINE OBSERVATIONS

STATION/POSITION TIME  TEMP    WIND        PRES    VSBY  WAVE
                       AIR SEA DIR/SP/G                  HT/PER
                 (UTC) (F)     (DEG/KT/KT) (MB)    (MI)  (FT/S)
BOSTON BUOY      2150   70 71  140/ 12/ 14 1017.1F         1/ 2
BUZZARDS BAY     2100          160/  8/  9 1017.7F
NANTUCKET SOUND  2150   70 73   90/  8/  8 1016.8F         1
MASS BAY-STELLWA 2104   70 71  130/ 10/ 12   N/A    1 3/4  1
ISLE OF SHOALS   2200   68     170/ 13/ 13 1016.2F
S OF BLOCK IS    2108      75                N/A           2/ 8
$$

......................KEY.........................
  SKY/WX - SKY CONDITION/PRESENT WEATHER
  TMP    - TEMPERATURE IN FAHRENHEIT
  DWPT   - DEWPOINT IN FAHRENHEIT
  RH     - RELATIVE HUMIDITY IN PERCENT
  WIND   - DIRECTION AND SPEED IN MPH
  PRES   - MEAN SEA LEVEL PRESSURE IN INCHES OF HG
  WCI    - WIND CHILL INDEX
  VSB    - VISIBILITY IN MILES
  HX     - HEAT INDEX
  TC     - TEMPERATURE IN CELSIUS
  VRB    - VARIABLE WIND DIRECTION
  N/A    - NOT AVAILABLE


USA.gov is the U.S. government's official web portal to all federal, state and local government web resources and services.